Live-Position
3D-Globus wird geladen...
Über Starlink 5801
Group: 3 satellites
Beschreibung wird geladen...
Nächste Überflüge
Passes for default location (London). Set your location on the main map for personalized predictions.
Höhenverlauf
Loading altitude history...
No altitude history available
Zweizeiliger Elementsatz
1 56005U 23042V 26121.25002315 .00053881 00000-0 20621-2 0 9995
2 56005 42.9996 126.7494 0001143 267.5526 5.6167 15.25788885 5762
Epoch: 1. Mai 2026 •
Age: 10 hours
Aktueller Status
Höhe 490.9 km
Geschwindigkeit 7.62 km/s
Subsatellitenpunkt -14.97°S,
12.67°E
Startdatum 24. März 2023
Alter 3.1 years
Typ internet
Startgruppe
Falcon 9 •
Group 5-5 •
51 satellites
Starlink 5905
55986
Starlink 5915 55987
Starlink 5916 55988
Starlink 5947 55989
Starlink 5946 55990
Starlink 5948 55991
Starlink 5969 55993
Starlink 5956 55994
Starlink 5903 55996
Starlink 5902 55998
Starlink 5901 55999
Starlink 5910 56000
Starlink 5944 56001
Starlink 5799 56002
Starlink 5789 56003
Starlink 5787 56004
Starlink 5794 56006
Starlink 5806 56007
Starlink 5803 56008
Starlink 5964 56009
...and 30 more
Technische Details
Klassifizierung Payload
Masse 305.00 kg
Trockenmasse 290.00 kg
Gesamtmasse 305.00 kg
Länge 0.20 m
Durchmesser 2.80 m
Spannweite 9.00 m
Form Box + pan
Hersteller SPXS
Bus-Typ Starlink
Phasenstatus In Orbit
Besitzer/Staat SPXS/US
Most Searched
Loading...